| time (UTC) | temp F | wind direction | speed MPH | gust MPH | rain 1hr in | rain 24hr in | rain mn in | humidity % | barometer mb |
| 20260831094028 | 59 | 185 | 4.0 | 7.0 | 0.11 | 0.33 | 0.18 | 94 | 1008.1 |
| 20260831093026 | 58 | 239 | 4.0 | 6.0 | 0.10 | 0.32 | 0.17 | 93 | 1008.4 |
| 20260831092023 | 62 | 242 | 5.0 | 15.0 | 0.06 | 0.28 | 0.13 | 90 | 1008.5 |
| 20260831091021 | 65 | 254 | 8.0 | 14.0 | 0.00 | 0.22 | 0.07 | 80 | 1007.9 |
| 20260831090017 | 66 | 236 | 8.0 | 16.0 | 0.00 | 0.22 | 0.07 | 80 | 1007.8 |
| 20260831085015 | 66 | 228 | 8.0 | 11.0 | 0.00 | 0.22 | 0.07 | 81 | 1007.6 |
| 20260831084042 | 66 | 217 | 8.0 | 11.0 | 0.00 | 0.22 | 0.07 | 82 | 1007.4 |
| 20260831083040 | 65 | 243 | 9.0 | 15.0 | 0.00 | 0.22 | 0.07 | 82 | 1007.5 |
| 20260831082037 | 65 | 198 | 7.0 | 11.0 | 0.00 | 0.22 | 0.07 | 84 | 1007.6 |
| 20260831081054 | 64 | 196 | 9.0 | 16.0 | 0.00 | 0.22 | 0.07 | 87 | 1008.0 |
| 20260831080032 | 63 | 128 | 6.0 | 8.0 | 0.00 | 0.22 | 0.07 | 89 | 1007.7 |
| 20260831075048 | 62 | 171 | 9.0 | 10.0 | 0.00 | 0.22 | 0.07 | 87 | 1008.0 |
| 20260831074025 | 61 | 172 | 6.0 | 8.0 | 0.00 | 0.22 | 0.07 | 87 | 1007.8 |
| 20260831073021 | 60 | 152 | 6.0 | 7.0 | 0.00 | 0.22 | 0.07 | 87 | 1007.9 |
| 20260831072018 | 60 | 169 | 6.0 | 9.0 | 0.02 | 0.22 | 0.07 | 88 | 1007.6 |
| 20260831071044 | 59 | 173 | 8.0 | 9.0 | 0.02 | 0.22 | 0.07 | 90 | 1007.8 |
| 20260831070041 | 58 | 163 | 5.0 | 7.0 | 0.02 | 0.22 | 0.07 | 93 | 1007.9 |
| 20260831065037 | 58 | 212 | 5.0 | 9.0 | 0.02 | 0.22 | 0.07 | 93 | 1008.3 |
| 20260831064034 | 58 | 205 | 9.0 | 13.0 | 0.02 | 0.22 | 0.07 | 92 | 1008.5 |
| 20260831063030 | 61 | 224 | 12.0 | 19.0 | 0.02 | 0.22 | 0.07 | 91 | 1008.4 |
| 20260831062028 | 63 | 151 | 10.0 | 13.0 | 0.00 | 0.20 | 0.05 | 91 | 1008.2 |
| 20260831061024 | 63 | 217 | 5.0 | 10.0 | 0.00 | 0.20 | 0.05 | 91 | 1007.9 |
| 20260831060021 | 63 | 223 | 7.0 | 10.0 | 0.00 | 0.20 | 0.05 | 92 | 1007.9 |
| 20260831055017 | 62 | 176 | 7.0 | 10.0 | 0.00 | 0.20 | 0.05 | 93 | 1008.0 |
| 20260831054043 | 62 | 152 | 6.0 | 11.0 | 0.00 | 0.20 | 0.05 | 94 | 1007.9 |
| 20260831053040 | 61 | 146 | 6.0 | 8.0 | 0.00 | 0.20 | 0.05 | 96 | 1007.8 |
| 20260831052037 | 61 | 158 | 5.0 | 8.0 | 0.00 | 0.20 | 0.05 | 96 | 1007.8 |
| 20260831051053 | 61 | 165 | 6.0 | 8.0 | 0.00 | 0.20 | 0.05 | 96 | 1007.8 |
| 20260831050029 | 60 | 170 | 8.0 | 10.0 | 0.01 | 0.20 | 0.05 | 96 | 1007.6 |
| 20260831045026 | 60 | 170 | 7.0 | 8.0 | 0.03 | 0.20 | 0.05 | 96 | 1007.7 |
| 20260831044022 | 60 | 155 | 5.0 | 8.0 | 0.04 | 0.20 | 0.05 | 95 | 1007.7 |
| 20260831043019 | 60 | 216 | 4.0 | 7.0 | 0.04 | 0.20 | 0.05 | 94 | 1007.8 |
| 20260831042015 | 60 | 211 | 5.0 | 9.0 | 0.04 | 0.20 | 0.05 | 94 | 1007.7 |
| 20260831041042 | 59 | 172 | 4.0 | 7.0 | 0.04 | 0.20 | 0.05 | 94 | 1007.5 |
| 20260831040058 | 60 | 239 | 6.0 | 9.0 | 0.03 | 0.19 | 0.04 | 94 | 1007.5 |
| 20260831035035 | 62 | 233 | 7.0 | 10.0 | 0.01 | 0.17 | 0.02 | 95 | 1007.9 |
| 20260831034031 | 62 | 176 | 10.0 | 14.0 | 0.00 | 0.16 | 0.01 | 95 | 1008.2 |
| 20260831033048 | 61 | 151 | 9.0 | 13.0 | 0.00 | 0.16 | 0.01 | 95 | 1008.2 |
| 20260831032025 | 61 | 178 | 9.0 | 11.0 | 0.00 | 0.16 | 0.01 | 95 | 1008.3 |
| 20260831031021 | 61 | 171 | 7.0 | 10.0 | 0.00 | 0.16 | 0.01 | 95 | 1008.2 |
| 20260831030018 | 61 | 146 | 9.0 | 13.0 | 0.00 | 0.16 | 0.01 | 95 | 1008.0 |
| 20260831025045 | 61 | 152 | 8.0 | 10.0 | 0.00 | 0.16 | 0.01 | 95 | 1008.1 |
| 20260831024041 | 61 | 160 | 7.0 | 10.0 | 0.00 | 0.16 | 0.01 | 96 | 1008.3 |
| 20260831023038 | 61 | 165 | 7.0 | 9.0 | 0.00 | 0.16 | 0.01 | 96 | 1008.3 |
| 20260831022034 | 61 | 157 | 8.0 | 11.0 | 0.00 | 0.16 | 0.01 | 97 | 1008.6 |
| 20260831021031 | 61 | 163 | 7.0 | 10.0 | 0.00 | 0.16 | 0.01 | 98 | 1008.6 |
| 20260831020027 | 61 | 181 | 8.0 | 9.0 | 0.00 | 0.16 | 0.01 | 98 | 1008.6 |
| 20260831015024 | 61 | 158 | 8.0 | 10.0 | 0.00 | 0.16 | 0.01 | 98 | 1008.9 |
| 20260831014020 | 61 | 171 | 6.0 | 8.0 | 0.00 | 0.16 | 0.01 | 98 | 1009.0 |
| 20260831013017 | 61 | 164 | 6.0 | 8.0 | 0.00 | 0.16 | 0.01 | 98 | 1008.9 |
| 20260831012044 | 61 | 171 | 4.0 | 6.0 | 0.00 | 0.16 | 0.01 | 98 | 1008.9 |
| 20260831011040 | 62 | 156 | 3.0 | 6.0 | 0.00 | 0.16 | 0.01 | 98 | 1008.9 |
| 20260831010036 | 62 | 158 | 5.0 | 7.0 | 0.00 | 0.16 | 0.01 | 98 | 1008.8 |
| 20260831005054 | 62 | 191 | 7.0 | 10.0 | 0.00 | 0.16 | 0.01 | 98 | 1008.7 |
| 20260831004030 | 62 | 158 | 6.0 | 9.0 | 0.00 | 0.16 | 0.01 | 98 | 1009.1 |
| 20260831003027 | 62 | 156 | 6.0 | 8.0 | 0.00 | 0.16 | 0.01 | 98 | 1009.1 |
| 20260831002023 | 62 | 194 | 7.0 | 9.0 | 0.00 | 0.16 | 0.01 | 99 | 1009.2 |
| 20260831001020 | 62 | 163 | 5.0 | 7.0 | 0.00 | 0.16 | 0.01 | 99 | 1009.4 |
| 20260831000017 | 62 | 172 | 6.0 | 8.0 | 0.00 | 0.16 | 0.01 | 99 | 1009.2 |
| 20260830235103 | 62 | 166 | 6.0 | 8.0 | 0.00 | 0.16 | 0.01 | 99 | 1009.3 |
| 20260830234040 | 61 | 173 | 6.0 | 7.0 | 0.00 | 0.19 | 0.01 | 99 | 1009.6 |
| 20260830233056 | 61 | 175 | 6.0 | 7.0 | 0.00 | 0.25 | 0.01 | 99 | 1009.4 |
| 20260830232033 | 61 | 180 | 6.0 | 7.0 | 0.01 | 0.27 | 0.01 | 99 | 1009.6 |
| 20260830231030 | 61 | 192 | 4.0 | 6.0 | 0.01 | 0.28 | 0.01 | 99 | 1009.6 |
| 20260830230025 | 62 | 162 | 5.0 | 7.0 | 0.01 | 0.28 | 0.01 | 99 | 1009.7 |
| 20260830225022 | 62 | 169 | 4.0 | 7.0 | 0.03 | 0.36 | 0.01 | 99 | 1009.6 |
| 20260830224018 | 62 | 157 | 6.0 | 8.0 | 0.14 | 0.40 | 0.01 | 99 | 1009.8 |
| 20260830223045 | 62 | 158 | 6.0 | 8.0 | 0.16 | 0.42 | 0.01 | 99 | 1010.0 |
| 20260830222042 | 62 | 164 | 6.0 | 10.0 | 0.15 | 0.43 | 0.00 | 99 | 1010.2 |
| 20260830221038 | 62 | 146 | 4.0 | 6.0 | 0.15 | 0.45 | 0.00 | 99 | 1010.3 |
| 20260830220035 | 62 | 182 | 5.0 | 10.0 | 0.15 | 0.54 | 0.54 | 99 | 1010.4 |
| 20260830215031 | 63 | 177 | 7.0 | 13.0 | 0.13 | 0.57 | 0.52 | 99 | 1010.6 |
| 20260830214027 | 64 | 160 | 12.0 | 16.0 | 0.02 | 0.51 | 0.41 | 92 | 1010.6 |
| 20260830213024 | 64 | 0.0 | 0.0 | 0.00 | 0.54 | 0.39 | 91 | 1010.4 | |
| 20260830212021 | 64 | 0.0 | 0.0 | 0.00 | 0.55 | 0.39 | 91 | 1010.4 | |
| 20260830211017 | 63 | 0.0 | 0.0 | 0.00 | 0.56 | 0.39 | 91 | 1010.3 | |
| 20260830210044 | 63 | 0.0 | 0.0 | 0.00 | 0.56 | 0.39 | 91 | 1010.5 | |
| 20260830205041 | 63 | 0.0 | 0.0 | 0.00 | 0.56 | 0.39 | 91 | 1010.7 | |
| 20260830204038 | 63 | 0.0 | 0.0 | 0.00 | 0.56 | 0.39 | 90 | 1010.7 | |
| 20260830203034 | 64 | 0.0 | 0.0 | 0.00 | 0.56 | 0.39 | 89 | 1011.0 | |
| 20260830202030 | 64 | 0.0 | 0.0 | 0.00 | 0.58 | 0.39 | 89 | 1011.1 | |
| 20260830201027 | 64 | 0.0 | 0.0 | 0.00 | 0.64 | 0.39 | 88 | 1011.0 | |
| 20260830200024 | 64 | 0.0 | 0.0 | 0.00 | 0.65 | 0.39 | 89 | 1011.4 | |
| 20260830195020 | 64 | 0.0 | 0.0 | 0.00 | 0.66 | 0.39 | 89 | 1011.1 | |
| 20260830194037 | 64 | 0.0 | 0.0 | 0.00 | 0.67 | 0.39 | 89 | 1011.3 | |
| 20260830193043 | 64 | 0.0 | 0.0 | 0.00 | 0.69 | 0.39 | 88 | 1011.4 | |
| 20260830192040 | 64 | 0.0 | 0.0 | 0.00 | 0.70 | 0.39 | 88 | 1011.4 | |
| 20260830191036 | 64 | 0.0 | 0.0 | 0.00 | 0.70 | 0.39 | 88 | 1011.4 | |
| 20260830190053 | 64 | 0.0 | 0.0 | 0.00 | 0.70 | 0.39 | 87 | 1011.5 | |
| 20260830185030 | 65 | 0.0 | 0.0 | 0.00 | 0.70 | 0.39 | 87 | 1011.6 | |
| 20260830184027 | 65 | 0.0 | 0.0 | 0.00 | 0.70 | 0.39 | 86 | 1011.5 | |
| 20260830183023 | 65 | 0.0 | 0.0 | 0.00 | 0.70 | 0.39 | 86 | 1011.5 | |
| 20260830182020 | 65 | 0.0 | 0.0 | 0.00 | 0.70 | 0.39 | 86 | 1011.7 | |
| 20260830181036 | 65 | 0.0 | 0.0 | 0.00 | 0.70 | 0.39 | 85 | 1011.7 | |
| 20260830180043 | 65 | 0.0 | 0.0 | 0.00 | 0.70 | 0.39 | 85 | 1011.7 | |
| 20260830175039 | 66 | 0.0 | 0.0 | 0.00 | 0.70 | 0.39 | 84 | 1011.7 | |
| 20260830174036 | 66 | 0.0 | 0.0 | 0.00 | 0.70 | 0.39 | 84 | 1011.9 | |
| 20260830173032 | 67 | 0.0 | 0.0 | 0.00 | 0.70 | 0.39 | 82 | 1011.8 | |
| 20260830172029 | 67 | 0.0 | 0.0 | 0.00 | 0.70 | 0.39 | 81 | 1011.7 | |
| 20260830171025 | 67 | 213 | 3.0 | 6.0 | 0.00 | 0.70 | 0.39 | 80 | 1012.0 |
| 20260830170022 | 68 | 178 | 2.0 | 7.0 | 0.00 | 0.71 | 0.39 | 80 | 1012.0 |
| 20260830165038 | 68 | 230 | 0.0 | 1.0 | 0.00 | 0.71 | 0.39 | 78 | 1012.0 |
| 20260830164045 | 69 | 226 | 1.0 | 4.0 | 0.00 | 0.71 | 0.39 | 79 | 1012.0 |
| 20260830163041 | 69 | 211 | 4.0 | 6.0 | 0.00 | 0.71 | 0.39 | 79 | 1012.1 |
| 20260830162058 | 69 | 229 | 6.0 | 11.0 | 0.00 | 0.71 | 0.39 | 79 | 1012.0 |
| 20260830161034 | 69 | 244 | 2.0 | 4.0 | 0.00 | 0.71 | 0.39 | 78 | 1012.1 |
| 20260830160031 | 69 | 252 | 7.0 | 11.0 | 0.00 | 0.71 | 0.39 | 79 | 1011.9 |
| 20260830155048 | 69 | 259 | 2.0 | 7.0 | 0.00 | 0.71 | 0.39 | 79 | 1012.1 |
| 20260830154024 | 69 | 175 | 4.0 | 7.0 | 0.00 | 0.71 | 0.39 | 79 | 1012.0 |
| 20260830153040 | 69 | 245 | 7.0 | 10.0 | 0.00 | 0.71 | 0.39 | 78 | 1012.1 |
| 20260830152017 | 69 | 233 | 7.0 | 13.0 | 0.00 | 0.71 | 0.39 | 80 | 1012.3 |
| 20260830151103 | 68 | 235 | 5.0 | 10.0 | 0.00 | 0.71 | 0.39 | 80 | 1012.4 |
| 20260830150100 | 68 | 224 | 0.0 | 1.0 | 0.00 | 0.71 | 0.39 | 81 | 1012.2 |
| 20260830145057 | 68 | 232 | 8.0 | 11.0 | 0.00 | 0.71 | 0.39 | 81 | 1012.1 |
| 20260830144033 | 69 | 266 | 5.0 | 11.0 | 0.00 | 0.71 | 0.39 | 82 | 1012.2 |
| 20260830143030 | 69 | 289 | 2.0 | 7.0 | 0.00 | 0.71 | 0.39 | 82 | 1012.0 |
| 20260830142026 | 68 | 0.0 | 0.0 | 0.00 | 0.71 | 0.39 | 85 | 1011.9 | |
| 20260830141022 | 67 | 233 | 5.0 | 9.0 | 0.00 | 0.71 | 0.39 | 87 | 1011.7 |
| 20260830140019 | 67 | 183 | 1.0 | 6.0 | 0.00 | 0.71 | 0.39 | 86 | 1012.1 |
| 20260830135056 | 68 | 238 | 6.0 | 9.0 | 0.00 | 0.71 | 0.39 | 85 | 1012.0 |
| 20260830134043 | 68 | 219 | 3.0 | 7.0 | 0.00 | 0.71 | 0.39 | 85 | 1012.0 |
| 20260830133058 | 67 | 0.0 | 0.0 | 0.00 | 0.71 | 0.39 | 85 | 1011.8 | |
| 20260830132035 | 68 | 218 | 5.0 | 7.0 | 0.00 | 0.71 | 0.39 | 85 | 1012.0 |
| 20260830131031 | 68 | 232 | 2.0 | 6.0 | 0.00 | 0.71 | 0.39 | 84 | 1011.7 |
| 20260830130029 | 68 | 272 | 4.0 | 7.0 | 0.00 | 0.71 | 0.39 | 85 | 1011.8 |
| 20260830125025 | 68 | 0.0 | 0.0 | 0.00 | 0.71 | 0.39 | 85 | 1011.9 | |
| 20260830124022 | 67 | 281 | 2.0 | 7.0 | 0.00 | 0.71 | 0.39 | 87 | 1011.6 |
| 20260830123018 | 66 | 298 | 5.0 | 10.0 | 0.00 | 0.71 | 0.39 | 89 | 1011.6 |
| 20260830122015 | 67 | 285 | 6.0 | 9.0 | 0.00 | 0.71 | 0.39 | 88 | 1011.6 |
| 20260830121042 | 68 | 198 | 1.0 | 2.0 | 0.00 | 0.71 | 0.39 | 84 | 1011.4 |
| 20260830120038 | 69 | 180 | 4.0 | 7.0 | 0.00 | 0.71 | 0.39 | 82 | 1011.1 |
| 20260830115035 | 69 | 237 | 6.0 | 8.0 | 0.00 | 0.71 | 0.39 | 81 | 1011.2 |
| 20260830114031 | 69 | 247 | 7.0 | 9.0 | 0.00 | 0.71 | 0.39 | 79 | 1011.1 |
| 20260830113029 | 69 | 16 | 1.0 | 4.0 | 0.00 | 0.71 | 0.39 | 80 | 1010.7 |
| 20260830112044 | 69 | 270 | 6.0 | 10.0 | 0.00 | 0.71 | 0.39 | 80 | 1010.8 |
| 20260830111021 | 69 | 276 | 6.0 | 10.0 | 0.00 | 0.71 | 0.39 | 81 | 1010.8 |
| 20260830110017 | 69 | 242 | 4.0 | 7.0 | 0.00 | 0.71 | 0.39 | 83 | 1010.5 |
| 20260830105044 | 68 | 251 | 0.0 | 3.0 | 0.00 | 0.71 | 0.39 | 87 | 1010.6 |
| 20260830104040 | 68 | 283 | 3.0 | 7.0 | 0.00 | 0.71 | 0.39 | 85 | 1010.6 |
| 20260830103036 | 68 | 284 | 2.0 | 6.0 | 0.00 | 0.71 | 0.39 | 85 | 1010.5 |
| 20260830102033 | 67 | 282 | 1.0 | 6.0 | 0.00 | 0.71 | 0.39 | 90 | 1010.4 |
| 20260830101029 | 66 | 0.0 | 0.0 | 0.00 | 0.71 | 0.39 | 91 | ||
| 20260830100025 | 66 | 0.0 | 0.0 | 0.00 | 0.71 | 0.39 | 92 | ||
| 20260830095022 | 66 | 0.0 | 0.0 | 0.00 | 0.71 | 0.39 | 94 |